Vorticity
10 13 15 17 18 19 20 20 19 18 17 17 18 19 20 19 14 10 10 18 21 14 4 -4 -1 1 3 8 12 15 17 15 4 1 4 11 12 9 6 4 5 7 9 11 10 8 4 1 -1 -1 -2 -2 -1 0 2 2 2 2 2 2 4 5 6 7 9 9 10 11 11
7 9 12 14 16 18 20 21 21 20 19 20 20 20 20 19 15 12 13 20 28 26 16 2 3 5 7 6 14 18 21 22 13 6 4 13 18 19 18 17 17 17 16 15 10 5 0 -4 -6 -5 -4 -3 -2 -0 1 2 1 1 2 3 5 7 8 9 10 10 10 10 10
8 8 9 11 14 16 18 20 21 21 20 20 21 21 21 19 16 13 14 18 27 29 22 4 -3 -1 3 3 3 7 13 18 16 10 6 12 17 21 23 23 23 22 19 13 5 -3 -8 -11 -10 -8 -6 -3 -1 1 3 3 2 2 3 5 7 8 10 12 11 10 10 10 10
11 8 7 9 11 13 15 18 20 21 21 21 20 21 21 20 17 14 13 16 24 28 24 8 -8 -13 -9 -1 -4 -8 -8 -1 7 9 8 8 11 14 16 17 16 12 6 -2 -10 -14 -14 -11 -6 -3 -1 1 2 3 4 4 4 4 4 6 8 10 11 13 12 11 10 10 11
15 11 8 7 9 11 13 16 18 20 22 22 21 21 21 21 18 15 13 14 23 28 28 16 -4 -17 -19 -6 4 2 -3 -8 -5 -1 2 4 5 7 7 6 1 -5 -11 -16 -15 -10 -5 0 1 0 0 1 2 3 4 4 5 6 7 7 9 10 11 12 12 12 11 11 11
20 15 11 8 8 10 12 14 16 18 21 22 22 22 22 22 18 16 13 11 18 26 30 25 6 -12 -20 -11 9 16 13 6 2 1 2 4 4 5 4 1 -4 -10 -13 -12 -4 3 8 9 5 0 -3 -3 -1 0 2 4 6 7 8 8 8 9 10 11 11 11 11 11 12
22 18 14 10 9 10 12 13 15 17 20 22 22 22 22 22 20 17 14 12 11 17 24 30 16 -1 -13 -11 4 13 14 9 5 3 3 4 6 7 8 9 7 5 3 2 3 5 8 10 7 4 1 -1 0 1 3 5 7 8 7 7 7 8 10 11 11 11 11 11 12
21 18 15 12 11 11 12 14 16 18 19 21 22 22 22 22 21 19 17 15 12 12 17 25 22 11 -2 -9 -1 7 11 10 6 3 1 2 5 8 11 15 18 19 17 13 7 4 4 7 9 8 7 5 3 4 5 7 7 7 6 5 6 8 10 11 11 11 11 11 12
19 17 14 13 12 12 13 15 17 19 20 21 22 22 22 22 21 20 18 17 15 13 13 16 20 17 8 -2 1 7 14 17 13 7 2 1 3 5 8 11 13 14 13 12 7 4 4 7 10 10 8 5 3 3 4 5 5 5 5 5 5 8 10 13 12 12 11 10 11
17 15 14 13 13 13 15 17 18 20 22 23 22 22 22 22 22 20 19 16 15 14 13 11 14 14 12 5 4 7 13 18 15 10 4 1 1 1 3 4 5 5 4 2 3 4 6 9 9 7 4 1 0 1 2 3 3 4 5 5 6 7 9 11 12 11 10 9 9
14 13 12 13 14 15 16 18 20 22 23 24 23 22 21 21 21 20 18 17 17 16 15 12 11 11 10 7 7 10 13 14 13 9 4 -0 -1 -0 1 1 0 -1 -2 -4 -2 1 4 7 6 4 1 -1 -1 -0 1 3 4 6 6 7 8 9 9 9 9 9 9 8 7
12 11 11 13 15 16 18 19 20 22 23 25 25 23 22 21 21 19 17 15 19 21 21 18 15 13 11 9 12 16 18 14 10 6 2 -1 -0 1 2 1 -1 -4 -6 -7 -5 -2 1 4 3 2 -0 -2 -1 1 3 5 6 8 9 10 11 12 10 8 7 6 6 6 6
10 10 12 14 16 17 18 19 20 20 22 24 26 26 24 22 21 20 17 12 14 18 22 25 23 20 17 14 17 22 24 18 9 3 -1 -2 1 3 4 3 -1 -4 -7 -8 -6 -3 0 3 3 1 -0 -1 0 3 5 7 9 10 11 13 14 15 14 11 8 6 6 6 6
9 11 13 15 17 18 18 18 18 19 21 24 27 28 28 25 23 22 19 14 10 10 12 17 22 22 22 22 23 26 27 22 12 4 -1 -1 3 5 6 4 1 -3 -7 -9 -6 -2 2 4 3 2 0 0 2 6 9 11 11 12 13 14 16 17 17 16 14 11 10 8 8
10 12 15 17 18 18 18 18 17 18 20 23 28 30 30 28 25 23 21 18 16 13 11 11 15 18 20 22 23 24 24 23 16 8 2 -0 4 6 7 6 3 -1 -5 -6 -2 2 5 5 3 1 0 1 5 8 12 13 13 13 14 14 14 15 15 17 18 18 16 13 11
12 15 18 20 20 19 18 17 17 17 19 22 27 28 29 27 26 24 23 23 23 22 18 13 12 12 13 13 13 14 17 20 17 11 4 1 3 6 7 8 5 1 -1 -1 2 4 5 3 0 -1 -1 2 6 11 13 14 14 13 13 12 9 8 8 12 17 20 19 15 12
14 17 21 22 22 20 19 18 18 18 19 21 24 25 25 24 24 24 25 27 28 28 25 19 13 8 6 6 6 9 14 22 20 14 7 2 4 6 8 9 6 4 3 4 4 4 2 -0 -2 -3 -1 2 7 11 13 13 13 12 11 9 6 3 3 5 12 16 18 16 14
14 19 22 25 24 22 20 19 19 19 19 20 22 23 23 23 23 24 26 28 29 28 26 21 15 10 9 12 17 22 27 33 29 21 12 6 7 8 9 9 8 8 7 6 4 2 0 -2 -3 -2 -1 3 7 11 13 13 13 13 12 10 7 5 4 5 9 14 18 20 18
13 18 23 26 26 24 23 22 22 21 21 21 22 23 24 24 22 21 20 22 25 26 24 21 18 15 13 17 26 35 43 48 41 29 18 11 8 7 7 8 9 8 7 6 3 2 0 -1 -2 -1 1 5 8 11 13 13 14 14 14 12 10 9 9 10 12 16 20 23 20
12 17 22 27 28 28 26 24 24 23 23 23 25 27 28 28 23 17 12 12 16 18 20 21 19 16 14 13 22 34 44 52 45 33 20 10 6 5 5 6 7 7 6 5 4 3 2 -0 -1 -0 2 6 9 11 13 15 15 14 13 11 11 12 13 15 16 19 21 23 20
12 17 22 28 30 30 29 27 26 24 23 23 26 30 33 34 26 16 7 3 4 7 11 16 17 16 15 15 22 31 40 46 41 32 20 10 4 2 2 3 4 4 4 4 3 2 0 -2 -1 1 4 7 10 12 13 14 12 10 7 6 9 12 15 17 19 20 22 22 20
12 18 23 29 32 32 31 29 27 24 21 19 23 29 34 36 29 20 10 4 2 4 9 14 18 20 22 24 28 32 35 36 34 28 21 13 6 3 1 1 2 3 2 2 0 -2 -3 -3 -0 3 7 9 10 10 10 9 6 3 2 3 8 12 16 18 20 21 22 22 20
12 18 24 30 32 33 32 30 27 23 19 14 16 22 27 32 28 23 16 10 8 10 15 20 23 25 26 26 26 26 25 25 25 24 20 16 11 6 3 2 3 3 2 0 -2 -3 -3 -1 3 7 9 10 8 7 6 5 2 1 2 5 10 14 17 19 20 22 23 23 20
12 18 24 30 32 32 32 30 27 23 19 13 12 14 18 23 24 23 19 15 17 21 25 26 26 24 21 18 18 17 17 16 18 19 19 18 14 10 7 5 5 4 2 -0 -2 -2 -0 3 7 9 9 7 5 4 4 4 3 4 5 8 13 16 18 20 22 23 24 24 21
12 18 24 29 31 31 31 29 27 25 21 16 13 12 13 16 19 19 18 18 22 26 28 28 24 20 16 13 12 12 12 13 14 16 17 18 16 13 10 8 7 5 3 1 0 2 5 9 11 10 7 4 3 4 5 6 6 7 9 12 15 18 20 21 23 24 24 23 20
11 17 23 28 29 30 29 28 27 26 24 20 17 15 15 16 16 17 18 20 22 23 22 20 19 17 16 13 12 12 13 14 15 15 16 15 15 13 12 9 7 5 4 3 6 9 13 14 12 8 5 3 4 6 8 9 9 10 12 15 18 20 21 22 23 23 23 21 19
12 17 22 26 28 28 27 27 26 26 25 23 21 20 18 16 15 16 18 20 20 18 15 14 13 13 13 13 14 16 17 17 16 15 13 12 11 10 9 7 6 6 7 9 13 17 18 16 10 6 4 4 7 10 11 11 12 13 15 18 20 21 22 23 22 21 20 18 16
12 16 21 25 27 26 25 25 25 25 25 24 23 20 18 15 14 14 14 15 14 13 13 13 12 11 11 13 14 14 14 14 14 12 10 9 8 7 6 6 7 9 12 16 20 20 16 11 7 5 6 9 12 13 13 13 13 15 17 19 20 21 22 23 22 20 17 15 13
12 15 20 24 25 25 24 24 24 25 24 24 22 20 17 15 15 15 14 13 12 12 13 13 11 12 13 14 13 13 12 13 12 11 10 11 11 11 10 10 12 15 19 22 21 16 11 6 6 8 11 14 15 15 14 14 15 16 18 19 19 20 20 21 20 19 16 13 12
11 14 18 23 24 24 23 22 23 23 24 23 20 18 16 15 16 17 16 14 11 9 8 7 10 12 14 14 15 17 17 15 13 13 15 17 18 19 19 20 22 23 24 22 17 12 9 9 12 14 16 16 16 15 14 15 15 16 17 17 18 18 18 18 18 17 15 13 11
11 13 17 21 23 23 22 21 21 22 22 21 18 15 14 15 18 20 19 15 10 6 4 5 8 10 12 13 18 21 23 22 19 18 18 19 20 22 23 24 24 22 19 15 12 10 11 14 16 17 17 16 15 14 14 15 16 17 17 17 17 16 15 15 15 15 14 13 11
10 12 15 19 22 22 21 20 19 20 21 21 18 16 15 16 19 20 21 18 13 9 6 7 8 9 11 14 18 20 21 23 24 23 21 20 19 18 17 17 15 12 10 9 10 12 15 17 17 16 15 14 14 14 15 16 17 17 18 18 18 16 14 13 12 12 12 12 11
10 11 14 17 19 20 19 19 18 18 20 21 20 18 17 15 16 18 20 21 18 14 10 8 8 10 12 14 15 15 14 14 16 17 18 18 16 14 13 11 8 7 6 7 10 12 14 15 15 14 13 13 14 14 15 16 17 18 18 19 17 15 13 11 10 10 10 10 11
10 11 13 15 16 17 18 17 17 17 18 21 22 20 18 15 14 16 19 21 20 17 13 11 11 11 12 11 11 10 8 6 6 7 9 11 11 12 12 12 10 10 10 10 11 12 12 13 13 13 13 13 14 14 15 16 17 18 18 17 15 13 11 10 9 9 9 9 10
9 11 12 13 14 15 15 16 16 16 17 19 21 20 19 17 16 17 19 20 20 18 15 14 14 14 14 13 11 8 6 4 5 5 4 4 5 7 9 11 13 14 15 15 14 13 11 10 10 11 12 13 13 13 14 14 15 16 16 15 13 11 10 10 10 10 10 10 10
10 11 12 12 13 13 13 14 15 16 17 18 20 20 20 18 18 17 18 18 18 18 16 14 15 15 16 17 16 14 11 7 6 5 5 5 5 6 8 10 12 13 14 14 13 12 11 10 10 10 10 11 11 12 12 13 14 14 15 14 13 12 12 11 11 11 11 11 12
10 11 12 12 12 11 12 12 13 15 17 18 19 20 20 19 17 17 17 18 18 17 16 15 15 16 17 17 17 16 15 13 11 9 9 9 9 10 10 10 11 12 12 12 11 11 10 10 10 10 9 10 10 11 12 13 14 14 14 15 14 14 13 13 13 13 13 13 13
11 12 12 13 12 11 10 10 12 13 15 17 18 19 19 18 17 16 17 18 18 18 16 16 16 17 17 17 17 16 16 16 15 14 13 12 12 12 11 10 10 10 10 10 10 10 10 9 9 9 9 9 10 11 13 14 14 14 14 14 14 14 14 14 13 13 14 14 14
12 13 13 13 12 11 10 9 10 11 12 14 16 17 17 16 15 14 13 13 14 14 14 14 15 15 16 16 16 16 16 16 16 15 14 13 12 11 11 10 9 10 10 10 10 10 10 10 9 9 9 9 11 12 13 14 14 14 14 14 14 14 14 14 14 14 14 15 15
13 13 13 13 13 12 11 10 10 10 10 11 12 13 14 13 12 11 10 9 9 10 10 11 11 12 13 13 14 14 14 14 14 14 13 12 12 11 11 11 10 11 11 11 11 11 11 10 9 9 9 11 12 13 14 13 14 14 14 14 14 14 14 14 13 14 14 15 16
14 14 14 13 13 12 11 11 11 10 10 9 10 10 10 10 10 9 9 8 8 8 8 8 9 10 10 11 12 13 13 14 14 14 14 13 13 12 12 12 12 12 12 12 12 12 11 10 9 9 10 13 14 14 13 13 13 13 13 14 14 13 13 13 13 13 14 15 16
Height
2998 2997 2996 2995 2994 2994 2993 2992 2992 2992 2992 2992 2992 2992 2992 2992 2992 2991 2991 2992 2992 2992 2992 2992 2992 2992 2992 2993 2994 2994 2995 2995 2996 2997 2997 2997 2996 2997 2997 2997 2997 2998 2999 3000 3001 3001 3002 3002 3003 3003 3004 3004 3004 3004 3004 3005 3005 3005 3005 3005 3006 3006 3007 3007 3007 3007 3007 3008 3008
2995 2994 2993 2992 2991 2990 2990 2989 2989 2988 2988 2988 2988 2988 2988 2988 2987 2987 2987 2988 2989 2990 2991 2991 2991 2991 2990 2991 2991 2991 2991 2992 2992 2993 2993 2993 2993 2994 2994 2995 2995 2996 2996 2997 2998 2998 2999 2999 3000 3000 3001 3001 3001 3001 3001 3002 3002 3002 3002 3003 3004 3004 3005 3005 3005 3005 3005 3005 3006
2991 2990 2989 2988 2987 2987 2986 2985 2985 2985 2985 2984 2984 2984 2984 2984 2984 2983 2983 2984 2985 2987 2988 2989 2989 2989 2988 2988 2989 2988 2988 2988 2988 2988 2989 2990 2991 2991 2992 2992 2993 2993 2994 2995 2995 2995 2996 2996 2996 2997 2997 2998 2998 2998 2998 2998 2999 2999 3000 3000 3001 3002 3002 3002 3002 3002 3003 3003 3003
2988 2987 2986 2985 2984 2983 2982 2982 2981 2981 2981 2981 2981 2981 2980 2980 2980 2980 2979 2980 2981 2982 2984 2985 2986 2986 2986 2986 2986 2985 2985 2984 2984 2984 2985 2986 2987 2988 2989 2989 2990 2990 2991 2991 2992 2992 2992 2993 2993 2994 2994 2995 2995 2996 2996 2996 2996 2997 2997 2998 2998 2999 2999 3000 3000 3000 3000 3000 3001
2985 2984 2983 2982 2981 2980 2979 2978 2978 2977 2977 2977 2977 2977 2977 2977 2977 2976 2975 2975 2977 2978 2980 2982 2982 2982 2982 2982 2982 2982 2981 2981 2981 2981 2982 2983 2984 2985 2986 2986 2987 2987 2987 2987 2988 2989 2989 2990 2990 2991 2991 2992 2992 2993 2993 2993 2994 2994 2994 2995 2996 2996 2997 2997 2997 2998 2998 2998 2998
2981 2980 2979 2978 2977 2977 2976 2975 2974 2974 2973 2973 2973 2973 2973 2973 2974 2973 2972 2972 2973 2975 2976 2978 2979 2979 2978 2978 2978 2978 2978 2978 2978 2978 2979 2980 2981 2982 2983 2984 2984 2984 2984 2984 2985 2986 2986 2987 2987 2988 2988 2989 2989 2989 2990 2991 2991 2991 2992 2992 2992 2993 2994 2995 2995 2995 2996 2996 2996
2978 2977 2976 2975 2974 2973 2972 2971 2971 2970 2970 2970 2970 2970 2970 2970 2970 2970 2969 2969 2969 2970 2972 2974 2975 2975 2975 2974 2974 2974 2974 2975 2975 2976 2977 2977 2978 2979 2980 2981 2981 2981 2981 2981 2982 2983 2984 2985 2985 2986 2986 2986 2987 2987 2987 2987 2988 2989 2989 2990 2990 2990 2991 2992 2992 2993 2993 2993 2993
2976 2974 2973 2972 2971 2970 2969 2968 2967 2967 2966 2966 2966 2966 2966 2966 2967 2966 2966 2967 2967 2967 2968 2969 2971 2971 2971 2971 2971 2971 2972 2972 2972 2972 2973 2974 2975 2976 2977 2978 2978 2978 2978 2978 2979 2980 2982 2982 2983 2983 2984 2984 2984 2984 2984 2985 2986 2987 2987 2987 2987 2987 2988 2988 2989 2990 2990 2991 2991
2972 2971 2970 2969 2968 2967 2966 2964 2964 2963 2962 2962 2962 2962 2962 2962 2962 2963 2963 2963 2963 2964 2964 2965 2966 2967 2968 2968 2968 2969 2969 2969 2969 2969 2970 2970 2971 2972 2974 2975 2976 2976 2976 2976 2977 2977 2979 2980 2980 2981 2981 2981 2981 2982 2982 2983 2984 2984 2985 2985 2985 2985 2985 2986 2986 2987 2987 2988 2988
2970 2968 2967 2966 2964 2963 2962 2961 2960 2960 2959 2958 2958 2959 2959 2959 2959 2959 2959 2959 2960 2960 2961 2961 2962 2963 2964 2965 2966 2966 2967 2967 2967 2967 2967 2967 2967 2968 2970 2972 2973 2973 2973 2973 2974 2975 2976 2977 2977 2977 2978 2979 2979 2980 2981 2981 2982 2982 2982 2982 2982 2982 2982 2983 2983 2984 2984 2985 2985
2967 2966 2964 2963 2961 2960 2959 2957 2957 2956 2956 2955 2955 2955 2955 2955 2955 2955 2956 2956 2957 2957 2957 2957 2958 2959 2960 2962 2962 2963 2963 2964 2964 2964 2964 2964 2964 2965 2967 2968 2970 2971 2971 2971 2972 2972 2973 2973 2974 2975 2976 2977 2977 2978 2978 2979 2979 2979 2979 2980 2980 2980 2980 2980 2981 2981 2981 2982 2982
2965 2963 2962 2960 2959 2957 2956 2954 2953 2952 2952 2951 2951 2951 2951 2951 2951 2952 2952 2953 2953 2953 2954 2955 2955 2956 2957 2958 2959 2959 2960 2961 2961 2962 2962 2962 2962 2962 2964 2965 2966 2967 2968 2969 2969 2970 2970 2971 2972 2972 2973 2974 2975 2975 2976 2976 2976 2977 2977 2977 2977 2977 2977 2977 2978 2978 2978 2979 2979
2963 2961 2959 2958 2956 2954 2952 2951 2950 2949 2948 2948 2947 2947 2947 2947 2947 2947 2948 2949 2949 2950 2951 2952 2952 2952 2953 2954 2955 2956 2956 2957 2958 2959 2959 2959 2959 2960 2961 2962 2963 2964 2965 2966 2967 2967 2968 2968 2969 2970 2971 2971 2972 2972 2972 2973 2973 2973 2974 2974 2974 2974 2974 2975 2975 2976 2976 2976 2976
2961 2959 2957 2955 2953 2952 2950 2948 2947 2946 2945 2945 2944 2944 2943 2943 2943 2944 2944 2945 2945 2946 2947 2949 2949 2949 2950 2951 2952 2952 2953 2954 2954 2955 2956 2957 2957 2957 2958 2959 2960 2961 2962 2963 2964 2965 2965 2966 2967 2968 2968 2968 2969 2969 2969 2970 2970 2971 2971 2971 2971 2972 2972 2972 2972 2973 2973 2973 2973
2959 2957 2955 2953 2951 2949 2947 2946 2944 2943 2942 2942 2941 2940 2940 2940 2940 2940 2941 2942 2942 2943 2945 2946 2947 2947 2947 2948 2948 2949 2950 2950 2951 2952 2953 2954 2954 2955 2955 2957 2957 2959 2960 2961 2962 2962 2963 2964 2965 2965 2966 2966 2966 2967 2967 2967 2967 2968 2968 2968 2969 2969 2969 2969 2970 2970 2970 2970 2970
2957 2954 2952 2950 2948 2946 2945 2943 2942 2940 2939 2938 2938 2937 2937 2937 2937 2937 2938 2939 2940 2941 2942 2943 2943 2944 2944 2945 2945 2946 2946 2947 2947 2948 2950 2951 2952 2952 2953 2954 2955 2957 2958 2959 2959 2960 2961 2962 2962 2963 2963 2964 2964 2964 2964 2964 2965 2965 2965 2966 2966 2966 2966 2967 2967 2967 2967 2967 2967
2954 2952 2950 2947 2946 2944 2942 2941 2939 2938 2937 2936 2935 2935 2934 2934 2934 2935 2936 2937 2937 2938 2939 2940 2941 2942 2942 2943 2943 2943 2943 2944 2945 2945 2946 2947 2948 2949 2950 2952 2953 2955 2956 2956 2957 2957 2958 2959 2960 2961 2961 2962 2962 2962 2962 2962 2962 2962 2963 2963 2963 2963 2963 2963 2963 2963 2963 2963 2963
2952 2950 2947 2945 2943 2941 2940 2938 2937 2936 2934 2933 2933 2932 2932 2932 2932 2932 2933 2934 2935 2936 2937 2937 2938 2939 2939 2940 2940 2940 2941 2942 2942 2943 2943 2945 2946 2947 2948 2950 2951 2952 2953 2953 2954 2954 2955 2957 2957 2958 2959 2959 2959 2959 2959 2959 2959 2960 2960 2960 2960 2960 2960 2960 2960 2960 2960 2960 2960
2950 2948 2945 2943 2941 2939 2937 2936 2935 2934 2932 2931 2931 2930 2930 2930 2930 2930 2931 2932 2932 2933 2934 2935 2935 2935 2936 2936 2936 2937 2937 2939 2940 2941 2942 2942 2943 2945 2946 2947 2948 2949 2950 2951 2951 2952 2953 2954 2955 2956 2956 2957 2957 2957 2957 2957 2957 2957 2957 2957 2957 2957 2957 2957 2957 2957 2957 2957 2957
2949 2946 2943 2941 2938 2937 2935 2934 2933 2932 2931 2930 2929 2928 2928 2928 2928 2928 2928 2929 2930 2931 2932 2932 2932 2932 2932 2932 2933 2934 2935 2936 2938 2939 2940 2941 2942 2942 2944 2945 2946 2946 2947 2948 2948 2950 2951 2952 2953 2954 2954 2954 2954 2954 2954 2954 2954 2954 2954 2955 2954 2954 2954 2954 2954 2954 2954 2954 2954
2947 2945 2942 2939 2937 2935 2933 2932 2931 2930 2929 2928 2927 2926 2926 2926 2926 2926 2926 2927 2928 2928 2929 2929 2929 2930 2930 2931 2932 2933 2934 2935 2936 2937 2938 2938 2939 2940 2941 2942 2943 2943 2944 2945 2947 2948 2949 2950 2951 2951 2951 2951 2951 2951 2952 2952 2952 2952 2952 2952 2952 2951 2951 2951 2951 2951 2951 2951 2951
2946 2943 2940 2937 2935 2933 2931 2930 2929 2928 2927 2927 2926 2925 2925 2924 2924 2925 2925 2925 2926 2927 2927 2927 2928 2928 2929 2930 2931 2932 2932 2933 2934 2934 2935 2936 2937 2938 2939 2940 2940 2941 2942 2943 2944 2946 2947 2947 2948 2948 2948 2948 2948 2948 2949 2949 2949 2949 2949 2948 2948 2948 2948 2948 2947 2947 2948 2948 2948
2945 2942 2939 2937 2934 2932 2930 2929 2928 2927 2927 2926 2925 2924 2924 2923 2923 2924 2924 2924 2924 2925 2926 2926 2927 2927 2928 2929 2929 2930 2931 2931 2932 2932 2933 2934 2935 2936 2937 2937 2938 2939 2940 2942 2942 2943 2944 2944 2944 2945 2945 2945 2945 2945 2946 2946 2946 2946 2945 2945 2945 2945 2945 2944 2944 2944 2945 2945 2945
2944 2941 2938 2936 2933 2931 2929 2928 2927 2926 2926 2925 2924 2923 2923 2923 2923 2923 2923 2923 2924 2924 2925 2925 2926 2927 2927 2927 2927 2928 2929 2929 2930 2931 2931 2932 2932 2933 2935 2936 2937 2937 2938 2939 2940 2941 2941 2941 2942 2942 2942 2942 2942 2942 2942 2942 2942 2942 2942 2942 2942 2942 2942 2941 2941 2942 2942 2942 2942
2943 2940 2937 2935 2932 2930 2928 2927 2926 2926 2925 2924 2924 2923 2923 2923 2922 2923 2923 2923 2923 2923 2924 2924 2925 2925 2925 2925 2926 2927 2927 2927 2928 2929 2929 2929 2930 2931 2932 2933 2934 2935 2936 2937 2938 2938 2939 2939 2939 2939 2939 2939 2939 2939 2940 2940 2940 2940 2939 2939 2939 2939 2939 2938 2938 2938 2939 2939 2939
2942 2939 2937 2934 2932 2930 2928 2927 2926 2925 2924 2924 2923 2923 2923 2922 2922 2922 2922 2922 2922 2923 2923 2923 2923 2924 2924 2924 2924 2925 2925 2926 2927 2927 2927 2927 2928 2929 2930 2930 2931 2932 2933 2934 2935 2936 2936 2936 2937 2937 2937 2937 2937 2937 2937 2937 2937 2937 2937 2936 2936 2936 2936 2936 2936 2936 2936 2936 2937
2941 2939 2936 2934 2932 2929 2928 2927 2926 2925 2924 2923 2923 2923 2922 2922 2922 2922 2922 2922 2922 2922 2922 2922 2922 2922 2922 2922 2922 2923 2924 2925 2925 2925 2925 2925 2926 2927 2927 2927 2928 2930 2931 2932 2932 2933 2933 2934 2934 2934 2934 2934 2934 2934 2934 2934 2934 2934 2934 2933 2933 2933 2933 2933 2933 2933 2933 2934 2934
2941 2938 2936 2933 2931 2929 2928 2926 2925 2924 2924 2923 2923 2922 2922 2922 2922 2922 2922 2922 2921 2921 2921 2921 2921 2921 2921 2921 2921 2922 2922 2923 2923 2923 2923 2923 2924 2924 2925 2925 2926 2927 2928 2929 2930 2931 2931 2931 2931 2931 2932 2932 2932 2932 2932 2931 2931 2931 2931 2931 2931 2931 2931 2931 2931 2931 2931 2931 2932
2940 2938 2936 2933 2931 2929 2927 2926 2925 2924 2923 2923 2922 2922 2922 2921 2921 2921 2921 2921 2921 2921 2920 2920 2920 2920 2920 2920 2920 2920 2921 2921 2921 2921 2921 2921 2921 2922 2922 2923 2923 2924 2926 2927 2927 2928 2928 2928 2928 2929 2929 2929 2929 2929 2929 2929 2929 2928 2928 2928 2928 2928 2928 2928 2928 2928 2929 2929 2929
2940 2937 2935 2933 2931 2929 2927 2926 2925 2924 2923 2922 2922 2921 2921 2921 2921 2921 2921 2921 2920 2920 2920 2919 2919 2919 2919 2919 2919 2919 2919 2919 2919 2919 2919 2919 2919 2920 2920 2920 2921 2922 2923 2924 2925 2925 2926 2926 2926 2926 2926 2926 2926 2926 2926 2926 2926 2926 2926 2926 2926 2926 2926 2926 2926 2926 2926 2927 2927
2939 2937 2935 2933 2931 2929 2928 2926 2925 2924 2923 2922 2922 2921 2920 2920 2920 2920 2920 2920 2919 2919 2918 2918 2917 2917 2917 2918 2918 2918 2918 2918 2918 2918 2918 2917 2917 2917 2918 2918 2918 2919 2920 2921 2922 2922 2923 2923 2923 2923 2924 2924 2924 2924 2924 2924 2924 2923 2923 2923 2923 2923 2923 2923 2923 2923 2924 2924 2925
2938 2937 2935 2933 2931 2930 2928 2927 2925 2924 2923 2922 2921 2920 2920 2920 2920 2920 2919 2919 2918 2918 2917 2917 2917 2916 2917 2917 2917 2917 2917 2917 2916 2916 2916 2916 2916 2915 2915 2916 2916 2917 2918 2919 2920 2920 2921 2921 2921 2921 2922 2922 2922 2922 2922 2921 2921 2921 2921 2921 2921 2921 2921 2921 2921 2921 2921 2922 2922
2938 2936 2934 2933 2931 2930 2928 2927 2925 2924 2923 2922 2922 2921 2920 2920 2919 2919 2918 2918 2918 2917 2916 2916 2916 2916 2916 2916 2916 2916 2916 2916 2915 2915 2914 2914 2914 2914 2913 2913 2914 2915 2916 2917 2917 2918 2918 2919 2919 2919 2919 2919 2919 2919 2919 2919 2919 2919 2919 2919 2919 2919 2918 2918 2918 2918 2919 2919 2920
2937 2936 2934 2932 2931 2930 2928 2927 2925 2924 2923 2923 2922 2921 2920 2920 2919 2918 2918 2917 2917 2917 2916 2915 2915 2915 2915 2915 2915 2915 2914 2914 2914 2913 2913 2913 2912 2912 2912 2912 2912 2913 2914 2915 2916 2916 2917 2917 2917 2917 2917 2917 2917 2917 2917 2917 2917 2917 2917 2917 2917 2917 2916 2916 2916 2916 2917 2917 2917
2937 2935 2933 2932 2931 2929 2928 2927 2925 2924 2923 2922 2922 2921 2920 2919 2919 2918 2918 2917 2917 2916 2915 2915 2914 2914 2914 2913 2913 2913 2913 2912 2912 2912 2912 2911 2911 2911 2911 2911 2911 2912 2912 2913 2913 2914 2914 2915 2915 2915 2915 2915 2915 2915 2914 2914 2914 2914 2914 2915 2915 2915 2914 2914 2914 2914 2914 2914 2914
2936 2934 2933 2931 2930 2929 2927 2926 2925 2924 2923 2922 2922 2921 2920 2919 2919 2918 2918 2917 2916 2916 2915 2914 2914 2913 2913 2912 2912 2912 2911 2911 2911 2910 2910 2910 2910 2910 2910 2910 2910 2911 2911 2911 2911 2912 2912 2912 2912 2913 2913 2913 2913 2912 2912 2912 2912 2912 2912 2912 2912 2912 2913 2913 2912 2912 2912 2912 2912
2935 2934 2932 2931 2929 2928 2927 2926 2925 2923 2922 2922 2921 2920 2920 2919 2918 2918 2917 2917 2916 2915 2915 2914 2913 2913 2912 2912 2912 2911 2911 2910 2910 2909 2909 2909 2909 2909 2909 2909 2909 2909 2910 2909 2909 2910 2910 2910 2910 2911 2911 2911 2911 2911 2911 2911 2911 2910 2910 2910 2910 2911 2911 2911 2911 2911 2911 2911 2911
2935 2933 2932 2930 2929 2927 2926 2925 2924 2923 2922 2921 2921 2920 2919 2919 2918 2917 2917 2916 2916 2915 2914 2914 2913 2912 2912 2912 2912 2911 2911 2910 2909 2909 2909 2908 2908 2908 2908 2908 2908 2908 2908 2908 2908 2908 2908 2908 2908 2908 2908 2908 2909 2909 2909 2909 2909 2909 2908 2908 2908 2908 2909 2909 2909 2909 2909 2909 2909
2934 2932 2931 2929 2928 2927 2926 2924 2923 2922 2922 2921 2920 2919 2919 2918 2917 2917 2916 2916 2915 2914 2914 2913 2912 2912 2912 2912 2911 2911 2910 2910 2909 2908 2908 2907 2907 2907 2907 2907 2907 2907 2907 2907 2907 2907 2906 2906 2906 2906 2906 2907 2907 2907 2907 2907 2907 2907 2906 2906 2906 2907 2907 2907 2908 2908 2908 2908 2908
2932 2931 2930 2929 2927 2926 2925 2924 2922 2922 2921 2920 2919 2918 2918 2917 2917 2916 2916 2915 2914 2914 2913 2912 2912 2912 2911 2911 2910 2910 2909 2909 2908 2907 2907 2907 2906 2906 2906 2905 2905 2906 2906 2906 2905 2905 2905 2905 2905 2904 2904 2905 2906 2906 2905 2905 2905 2904 2904 2904 2905 2905 2905 2905 2906 2906 2907 2907 2907
2931 2930 2929 2928 2927 2926 2924 2923 2922 2921 2920 2919 2918 2918 2917 2916 2916 2915 2915 2914 2913 2913 2912 2912 2911 2910 2910 2909 2909 2909 2908 2908 2907 2907 2906 2906 2905 2905 2905 2905 2905 2905 2904 2904 2904 2904 2904 2903 2903 2903 2903 2904 2904 2904 2903 2902 2902 2902 2902 2902 2902 2903 2903 2903 2904 2904 2905 2905 2905